TimeMYT,TemperatureF,Dew PointF,Humidity,Sea Level PressureIn,VisibilityMPH,Wind Direction,Wind SpeedMPH,Gust SpeedMPH,PrecipitationIn,Events,Conditions,WindDirDegrees,DateUTC
12:00 AM,80.6,71.6,74,29.89,6.2,NE,12.7,-,N/A,,Mostly Cloudy,40,2013-03-07 16:00:00
12:30 AM,80.6,71.6,74,29.89,6.2,NE,10.4,-,N/A,,Mostly Cloudy,50,2013-03-07 16:30:00
1:00 AM,80.6,71.6,74,29.89,6.2,ENE,11.5,-,N/A,,Mostly Cloudy,60,2013-03-07 17:00:00
1:30 AM,80.6,73.4,79,29.86,6.2,ENE,10.4,-,N/A,,Mostly Cloudy,60,2013-03-07 17:30:00
2:00 AM,78,76,91,29.87,6,Calm,Calm,,,,Scattered Clouds,,2013-03-07 18:00:00
2:00 AM,80.6,73.4,79,29.86,6.2,NE,11.5,-,N/A,,Mostly Cloudy,50,2013-03-07 18:00:00
2:30 AM,80.6,73.4,79,29.86,6.2,NE,11.5,-,N/A,,Mostly Cloudy,50,2013-03-07 18:30:00
3:00 AM,80.6,73.4,79,29.83,6.2,NE,8.1,-,N/A,,Mostly Cloudy,40,2013-03-07 19:00:00
3:30 AM,80.6,73.4,79,29.83,6.2,NE,9.2,-,N/A,,Mostly Cloudy,50,2013-03-07 19:30:00
4:00 AM,80.6,73.4,79,29.83,6.2,NE,9.2,-,N/A,,Mostly Cloudy,50,2013-03-07 20:00:00
4:30 AM,80.6,71.6,74,29.83,6.2,NE,8.1,-,N/A,,Mostly Cloudy,50,2013-03-07 20:30:00
5:00 AM,77,74,90,29.82,5,NNE,1.2,,,,Scattered Clouds,20,2013-03-07 21:00:00
5:00 AM,78.8,73.4,83,29.80,6.2,NE,8.1,-,N/A,,Mostly Cloudy,40,2013-03-07 21:00:00
5:30 AM,78.8,73.4,83,29.80,6.2,East,4.6,-,N/A,,Mostly Cloudy,90,2013-03-07 21:30:00
6:00 AM,78.8,73.4,83,29.83,6.2,NE,5.8,-,N/A,,Mostly Cloudy,40,2013-03-07 22:00:00
6:30 AM,80.6,71.6,74,29.83,6.2,NE,10.4,-,N/A,,Mostly Cloudy,40,2013-03-07 22:30:00
7:00 AM,80.6,71.6,74,29.83,6.2,NE,9.2,-,N/A,,Mostly Cloudy,40,2013-03-07 23:00:00
7:30 AM,80.6,71.6,74,29.86,6.2,NE,6.9,-,N/A,,Mostly Cloudy,40,2013-03-07 23:30:00
8:00 AM,77,75,93,29.88,9,NNW,2.3,,,,Haze,340,2013-03-08 00:00:00
8:00 AM,80.6,71.6,74,29.86,6.2,NE,9.2,-,N/A,,Mostly Cloudy,40,2013-03-08 00:00:00
8:30 AM,82.4,71.6,70,29.89,6.2,NNE,9.2,-,N/A,,Mostly Cloudy,30,2013-03-08 00:30:00
9:00 AM,84.2,73.4,70,29.89,6.2,NNE,8.1,-,N/A,,Mostly Cloudy,20,2013-03-08 01:00:00
9:30 AM,84.2,73.4,70,29.89,6.2,NE,10.4,-,N/A,,Mostly Cloudy,50,2013-03-08 01:30:00
10:00 AM,86.0,73.4,66,29.92,6.2,NNE,5.8,-,N/A,,Mostly Cloudy,20,2013-03-08 02:00:00
10:30 AM,87.8,73.4,62,29.92,6.2,ENE,8.1,-,N/A,,Mostly Cloudy,60,2013-03-08 02:30:00
11:00 AM,89,76,57,29.93,11,NNW,3.5,,,,Haze,340,2013-03-08 03:00:00
11:00 AM,87.8,73.4,62,29.92,6.2,NE,6.9,-,N/A,,Mostly Cloudy,40,2013-03-08 03:00:00
11:30 AM,89.6,73.4,59,29.92,6.2,NE,8.1,-,N/A,,Mostly Cloudy,50,2013-03-08 03:30:00
12:00 PM,91.4,75.2,59,29.92,6.2,NE,6.9,-,N/A,,Mostly Cloudy,40,2013-03-08 04:00:00
12:30 PM,91.4,75.2,59,29.89,6.2,ENE,6.9,-,N/A,,Mostly Cloudy,60,2013-03-08 04:30:00
1:00 PM,91.4,75.2,59,29.89,6.2,North,3.5,-,N/A,,Mostly Cloudy,360,2013-03-08 05:00:00
1:30 PM,87.8,75.2,66,29.86,6.2,West,4.6,-,N/A,,Mostly Cloudy,260,2013-03-08 05:30:00
2:00 PM,90,79,62,29.84,9,West,6.9,,,,Haze,260,2013-03-08 06:00:00
2:00 PM,87.8,75.2,66,29.83,6.2,SW,8.1,-,N/A,,Mostly Cloudy,220,2013-03-08 06:00:00
2:30 PM,87.8,75.2,66,29.83,5.6,SSW,9.2,-,N/A,,Mostly Cloudy,200,2013-03-08 06:30:00
3:00 PM,84.2,77.0,79,29.83,5.6,SW,6.9,-,N/A,Rain,Light Rain Showers,220,2013-03-08 07:00:00
3:30 PM,86.0,77.0,74,29.80,5.6,SW,8.1,-,N/A,Rain,Light Rain Showers,230,2013-03-08 07:30:00
4:00 PM,86.0,77.0,74,29.80,6.2,SW,9.2,-,N/A,,Mostly Cloudy,230,2013-03-08 08:00:00
4:30 PM,86.0,77.0,74,29.80,6.2,SSW,6.9,-,N/A,,Mostly Cloudy,210,2013-03-08 08:30:00
5:00 PM,76,75,96,29.82,0,NNE,11.5,,,Rain-Thunderstorm,Thunderstorms and Rain,30,2013-03-08 09:00:00
5:00 PM,84.2,77.0,79,29.77,6.2,SSW,5.8,-,N/A,,Mostly Cloudy,210,2013-03-08 09:00:00
5:30 PM,84.2,75.2,74,29.77,6.2,SW,4.6,-,N/A,,Mostly Cloudy,230,2013-03-08 09:30:00
6:00 PM,86.0,77.0,74,29.80,6.2,SSW,4.6,-,N/A,,Mostly Cloudy,210,2013-03-08 10:00:00
6:30 PM,84.2,77.0,79,29.80,6.2,SW,3.5,-,N/A,,Mostly Cloudy,230,2013-03-08 10:30:00
7:00 PM,84.2,77.0,79,29.80,6.2,SW,3.5,-,N/A,,Mostly Cloudy,230,2013-03-08 11:00:00
7:30 PM,82.4,77.0,84,29.80,6.2,SW,1.2,-,N/A,,Mostly Cloudy,220,2013-03-08 11:30:00
8:00 PM,78,77,95,29.83,7,NNW,1.2,,,,Partly Cloudy,330,2013-03-08 12:00:00
8:00 PM,82.4,77.0,84,29.83,6.2,Calm,Calm,-,N/A,,Mostly Cloudy,0,2013-03-08 12:00:00
8:30 PM,82.4,77.0,84,29.83,6.2,East,1.2,-,N/A,,Mostly Cloudy,80,2013-03-08 12:30:00
9:00 PM,80.6,77.0,89,29.83,6.2,SSE,3.5,-,N/A,,Mostly Cloudy,150,2013-03-08 13:00:00
9:30 PM,80.6,77.0,89,29.86,6.2,SSE,3.5,-,N/A,,Mostly Cloudy,150,2013-03-08 13:30:00
10:00 PM,80.6,75.2,84,29.86,6.2,SSE,4.6,-,N/A,,Mostly Cloudy,150,2013-03-08 14:00:00
10:30 PM,80.6,75.2,84,29.86,6.2,SE,3.5,-,N/A,,Mostly Cloudy,140,2013-03-08 14:30:00
11:00 PM,78,77,94,29.88,4,Calm,Calm,,,,Mist,,2013-03-08 15:00:00
11:00 PM,80.6,75.2,84,29.89,6.2,SE,2.3,-,N/A,,Mostly Cloudy,140,2013-03-08 15:00:00
11:30 PM,78.8,75.2,89,29.89,6.2,SSE,3.5,-,N/A,,Mostly Cloudy,160,2013-03-08 15:30:00